カタログに戻る

STARLINK-5093

運用中通信SSO
NORAD 56332·PAYLOAD·🇺🇸 United States

打ち上げ Apr 27, 2023 から Vandenberg Space Force Base

Loading…

次のパス (今後24時間)

TLE

最新Source: CelesTrak SupGP

元期: Sep 15, 2026, 03:11 UTC

1 56332C 23058R   26258.13312500  .00689950  00000+0  38259-1 0  2587
2 56332  97.2847 252.2507 0001582  84.0362 201.0775 15.13515577    13

AllMySatでSTARLINK-5093をリアルタイム追跡

Download on the App Store